sat.trackr.live / text

‹ back to catalog

STARLINK-36171

NORAD 67027 · 2025-293AA

PAYLOAD ACTIVE UNKNOWN

§ Identity

Operator
Country
US
Launch date
2025-12-10
Launch site
AFWTR
Launch vehicle
Mass (kg)
RCS (m²)

Purposes: comms

External: N2YO · Heavens-Above · Gunter

§ Orbital elements

Epoch: 2026-05-24T17:50:00.857472Z

Period
96.11 min
Inclination
70.0007°
Eccentricity
0.0003198
Mean motion
14.98350108 rev/d
Perigee alt
569.8 km
Apogee alt
574.2 km
Semi-major
6,950.1 km
B*
4.7458e-4
RAAN
262.5442°
Arg perigee
267.4641°
Mean anomaly
92.6152°
Rev number
2,628

§ Raw data

STARLINK-361711 67027U 25293AA  26144.74306548  .00005577  00000+0  47458-3 0  99912 67027  70.0007 262.5442 0003198 267.4641  92.6152 14.98350108 26286

JSON: /api/v1/satellites/67027 · /tle

For live sub-satellite position, see the globe view (requires WebGL).

§ Visibility from observer

Set your observer location to see the next 7 days of passes ≥ 10°. The values pass through the URL so the page stays shareable.

No JS? Fill the form by hand. The geolocation button needs JavaScript.